User: anonymous   Login
Location: Unspecified
(0.0000°N, 0.0000°E)
Time: 17:23:22
(UTC+02:00)
Language:

PSLV R/B - Orbit

View from above orbital plane
View from above orbital plane
View from above satellite
View from above satellite

Ground track
Ground track

The orbit data is extracted from the following two-line orbital elements,

1 29713U 07001E   15212.02723301  .00000604  00000-0  78015-4 0  9994
2 29713 097.6795 194.9289 0025258 188.9892 171.0874 14.84216645462108
Epoch (UTC): 31 July 2015 00:39:12
Eccentricity: 0.0025258
inclination: 97.6795°
perigee height: 598 km
apogee height: 634 km
right ascension of ascending node: 194.9289°
argument of perigee: 188.9892°
revolutions per day: 14.84216645
mean anomaly at epoch: 171.0874°
orbit number at epoch: 46210

The dashed part of the orbit path shows where the satellite is in the earth's shadow,  

DLR